Location: Newark
(39.9500°N, 8.6833°E)
Time: 22:07:20
(UTC+00:00)

NO-84 - Pass Details

Date: 26 February 2020
Orbit: 328 x 491 km, 55.0° (Epoch: 01 April)

Event Time Altitude Azimuth Distance (km) Brightness Sun altitude
Exits shadow 04:59:45 13° 316° (NW) 1,472 ? -13.1°
Maximum altitude 05:03:02 78° 41° (NE) 480 ? -12.5°
Drops below altitude 10° 05:06:35 10° 130° (SE) 1,572 ? -11.8°
Sets 05:08:38 0° 131° (SE) 2,411 ? -11.4°
